PG371 VTBS-VTSM

Flight info

Callsign PG371
Flight time 1h 0m
Altitude 32000
Route KASNI3J KASNI M757 MABKO W33 UPNEP
Aircraft A320/M-SDE3FGHIRWY/LB1

Departure

Time 2026-04-14 15:18
Airport Suvarnabhumi Airport (VTBS)

Arrival

Time 2026-04-14 16:18
Airport Samui International Airport (VTSM)
Time Latitude Longitude Altitude Speed Heading
2026-04-14 14:49 13.69278 100.75537 -14 ft 0 kts 284°
2026-04-14 15:09 13.69278 100.75538 13 ft 2 kts 284°
2026-04-14 15:09 13.69271 100.75563 13 ft 4 kts 287°
2026-04-14 15:10 13.69262 100.75589 15 ft 4 kts 293°
2026-04-14 15:10 13.69250 100.75614 16 ft 4 kts 309°
2026-04-14 15:10 13.69232 100.75628 15 ft 3 kts 11°
2026-04-14 15:10 13.69225 100.75626 16 ft 0 kts 15°
2026-04-14 15:14 13.69228 100.75627 15 ft 3 kts 15°
2026-04-14 15:14 13.69275 100.75640 14 ft 9 kts 15°
2026-04-14 15:14 13.69356 100.75662 13 ft 14 kts 14°
2026-04-14 15:14 13.69456 100.75688 13 ft 16 kts 14°
2026-04-14 15:15 13.69541 100.75724 13 ft 13 kts 51°
2026-04-14 15:15 13.69532 100.75820 13 ft 15 kts 105°
2026-04-14 15:15 13.69503 100.75931 13 ft 17 kts 104°
2026-04-14 15:15 13.69422 100.75976 13 ft 14 kts 205°
2026-04-14 15:16 13.69317 100.75952 13 ft 17 kts 192°
2026-04-14 15:16 13.69212 100.75954 13 ft 14 kts 133°
2026-04-14 15:16 13.69192 100.76015 12 ft 8 kts 102°
2026-04-14 15:16 13.69159 100.76066 12 ft 10 kts 148°
2026-04-14 15:17 13.69100 100.76084 12 ft 11 kts 175°
2026-04-14 15:17 13.68955 100.76045 14 ft 49 kts 195°
2026-04-14 15:17 13.68400 100.75899 14 ft 112 kts 193°
2026-04-14 15:17 13.67477 100.75651 17 ft 159 kts 196°
2026-04-14 15:18 13.66415 100.75369 683 ft 152 kts 193°
2026-04-14 15:18 13.65387 100.75111 1505 ft 154 kts 192°
2026-04-14 15:18 13.64348 100.74853 2224 ft 151 kts 193°
2026-04-14 15:18 13.63320 100.74587 2727 ft 157 kts 194°
2026-04-14 15:19 13.62258 100.74304 3226 ft 159 kts 194°
2026-04-14 15:19 13.61177 100.74017 3824 ft 160 kts 194°
2026-04-14 15:19 13.60090 100.73728 4222 ft 163 kts 194°
2026-04-14 15:19 13.58945 100.73418 4546 ft 183 kts 195°
2026-04-14 15:20 13.57644 100.73059 4780 ft 204 kts 195°
2026-04-14 15:20 13.56188 100.72659 4981 ft 229 kts 194°
2026-04-14 15:20 13.54573 100.72217 5296 ft 253 kts 195°
2026-04-14 15:20 13.52789 100.71728 5680 ft 274 kts 195°
2026-04-14 15:21 13.50916 100.71214 6351 ft 282 kts 194°
2026-04-14 15:21 13.49002 100.70687 7053 ft 287 kts 194°
2026-04-14 15:21 13.47055 100.70155 7777 ft 291 kts 193°
2026-04-14 15:21 13.45072 100.69644 8508 ft 296 kts 193°
2026-04-14 15:22 13.43051 100.69140 8893 ft 301 kts 192°
2026-04-14 15:22 13.41012 100.68639 8986 ft 300 kts 192°
2026-04-14 15:22 13.38976 100.68149 9000 ft 300 kts 189°
2026-04-14 15:22 13.36909 100.67991 9003 ft 298 kts 179°
2026-04-14 15:23 13.34836 100.67986 9003 ft 298 kts 179°
2026-04-14 15:23 13.32762 100.67975 9004 ft 298 kts 179°
2026-04-14 15:23 13.30693 100.67963 9003 ft 298 kts 179°
2026-04-14 15:23 13.28618 100.67951 9003 ft 298 kts 179°
2026-04-14 15:24 13.26545 100.67939 9004 ft 298 kts 179°
2026-04-14 15:24 13.24472 100.67924 9005 ft 298 kts 179°
2026-04-14 15:24 13.22376 100.67910 9523 ft 301 kts 179°
2026-04-14 15:24 13.20271 100.67897 10207 ft 307 kts 179°
2026-04-14 15:25 13.18058 100.67886 10421 ft 328 kts 179°
2026-04-14 15:25 13.15737 100.67876 10923 ft 337 kts 179°
2026-04-14 15:25 13.13382 100.67865 11554 ft 340 kts 179°
2026-04-14 15:25 13.11006 100.67851 12205 ft 343 kts 179°
2026-04-14 15:26 13.08604 100.67837 12853 ft 345 kts 179°
2026-04-14 15:26 13.06192 100.67813 13520 ft 348 kts 179°
2026-04-14 15:26 13.03763 100.67758 14100 ft 351 kts 180°
2026-04-14 15:26 13.01313 100.67686 14659 ft 354 kts 181°
2026-04-14 15:27 12.98842 100.67607 15209 ft 356 kts 181°
2026-04-14 15:27 12.96354 100.67531 15756 ft 359 kts 181°
2026-04-14 15:27 12.93839 100.67458 16309 ft 362 kts 181°
2026-04-14 15:27 12.91309 100.67389 16850 ft 365 kts 182°
2026-04-14 15:28 12.88787 100.67324 17394 ft 368 kts 182°
2026-04-14 15:28 12.86183 100.67259 17938 ft 371 kts 182°
2026-04-14 15:28 12.83593 100.67195 18434 ft 374 kts 182°
2026-04-14 15:28 12.80983 100.67129 18894 ft 377 kts 182°
2026-04-14 15:29 12.78383 100.67059 19352 ft 380 kts 182°
2026-04-14 15:29 12.75732 100.66987 19804 ft 383 kts 182°
2026-04-14 15:29 12.73057 100.66915 20280 ft 385 kts 182°
2026-04-14 15:29 12.70368 100.66843 20750 ft 388 kts 181°
2026-04-14 15:30 12.67658 100.66770 21211 ft 391 kts 181°
2026-04-14 15:30 12.64924 100.66699 21662 ft 394 kts 181°
2026-04-14 15:30 12.62172 100.66628 22124 ft 397 kts 181°
2026-04-14 15:30 12.59398 100.66559 22581 ft 400 kts 181°
2026-04-14 15:31 12.56604 100.66490 23040 ft 403 kts 181°
2026-04-14 15:31 12.53788 100.66418 23482 ft 406 kts 181°
2026-04-14 15:31 12.50953 100.66341 23855 ft 409 kts 181°
2026-04-14 15:31 12.48096 100.66266 24244 ft 412 kts 181°
2026-04-14 15:32 12.45222 100.66192 24617 ft 414 kts 181°
2026-04-14 15:32 12.42334 100.66117 24979 ft 417 kts 181°
2026-04-14 15:32 12.39424 100.66040 25335 ft 420 kts 181°
2026-04-14 15:32 12.36492 100.65961 25690 ft 422 kts 181°
2026-04-14 15:33 12.33545 100.65884 26043 ft 425 kts 181°
2026-04-14 15:33 12.30585 100.65807 26377 ft 428 kts 181°
2026-04-14 15:33 12.27601 100.65730 26712 ft 430 kts 181°
2026-04-14 15:33 12.24600 100.65653 27040 ft 433 kts 181°
2026-04-14 15:34 12.21576 100.65576 27354 ft 435 kts 181°
2026-04-14 15:34 12.18542 100.65498 27670 ft 438 kts 181°
2026-04-14 15:34 12.15481 100.65417 27984 ft 441 kts 181°
2026-04-14 15:34 12.12407 100.65334 28297 ft 443 kts 181°
2026-04-14 15:35 12.09314 100.65252 28612 ft 446 kts 181°
2026-04-14 15:35 12.06203 100.65173 28916 ft 449 kts 181°
2026-04-14 15:35 12.03074 100.65094 29211 ft 451 kts 181°
2026-04-14 15:35 11.99929 100.65015 29541 ft 454 kts 181°
2026-04-14 15:36 11.96758 100.64934 29848 ft 457 kts 181°
2026-04-14 15:36 11.93573 100.64852 30136 ft 459 kts 181°
2026-04-14 15:36 11.90378 100.64772 30406 ft 461 kts 181°
2026-04-14 15:36 11.87168 100.64691 30702 ft 462 kts 181°
2026-04-14 15:37 11.83941 100.64609 30978 ft 464 kts 181°
2026-04-14 15:37 11.80710 100.64525 31266 ft 466 kts 181°
2026-04-14 15:37 11.77466 100.64442 31539 ft 467 kts 181°
2026-04-14 15:37 11.74204 100.64360 31799 ft 468 kts 181°
2026-04-14 15:38 11.67826 100.64199 31871 ft 443 kts 181°
2026-04-14 15:38 11.64791 100.64122 31873 ft 432 kts 181°
2026-04-14 15:38 11.61794 100.64045 31871 ft 428 kts 181°
2026-04-14 15:39 11.55889 100.63896 31871 ft 427 kts 181°
2026-04-14 15:39 11.49954 100.63748 31871 ft 427 kts 181°
2026-04-14 15:40 11.44019 100.63602 31873 ft 426 kts 181°
2026-04-14 15:40 11.38089 100.63449 31873 ft 426 kts 181°
2026-04-14 15:41 11.32154 100.63290 31872 ft 426 kts 181°
2026-04-14 15:41 11.26224 100.63140 31879 ft 426 kts 181°
2026-04-14 15:42 11.20311 100.62997 31885 ft 426 kts 181°
2026-04-14 15:42 11.14380 100.62853 31885 ft 426 kts 181°
2026-04-14 15:43 11.08417 100.62711 31876 ft 436 kts 181°
2026-04-14 15:43 11.05356 100.62632 31470 ft 444 kts 181°
2026-04-14 15:43 11.02254 100.62547 30809 ft 446 kts 181°
2026-04-14 15:44 10.99170 100.62464 30311 ft 437 kts 181°
2026-04-14 15:44 10.96188 100.62388 30086 ft 423 kts 181°
2026-04-14 15:44 10.93268 100.62317 29847 ft 418 kts 181°
2026-04-14 15:44 10.90373 100.62246 29582 ft 415 kts 181°
2026-04-14 15:45 10.87491 100.62177 29314 ft 413 kts 181°
2026-04-14 15:45 10.84630 100.62107 29054 ft 411 kts 181°
2026-04-14 15:45 10.81785 100.62037 28795 ft 408 kts 181°
2026-04-14 15:45 10.78954 100.61965 28539 ft 407 kts 181°
2026-04-14 15:46 10.76123 100.61893 28290 ft 405 kts 181°
2026-04-14 15:46 10.73320 100.61822 28034 ft 402 kts 181°
2026-04-14 15:46 10.70525 100.61753 27804 ft 398 kts 181°
2026-04-14 15:46 10.67764 100.61684 27430 ft 396 kts 181°
2026-04-14 15:47 10.65015 100.61614 27032 ft 395 kts 181°
2026-04-14 15:47 10.62294 100.61545 26622 ft 394 kts 181°
2026-04-14 15:47 10.60444 100.61499 26338 ft 394 kts 181°
2026-04-14 15:47 10.56816 100.61409 25791 ft 393 kts 180°
2026-04-14 15:48 10.54086 100.61341 25351 ft 393 kts 180°
2026-04-14 15:48 10.51345 100.61273 24914 ft 393 kts 180°
2026-04-14 15:48 10.49537 100.61228 24621 ft 393 kts 180°
2026-04-14 15:48 10.46762 100.61159 24168 ft 393 kts 180°
2026-04-14 15:49 10.44066 100.61093 23725 ft 394 kts 180°
2026-04-14 15:49 10.41324 100.61025 23230 ft 394 kts 180°
2026-04-14 15:49 10.38592 100.60958 22823 ft 391 kts 180°
2026-04-14 15:49 10.35881 100.60891 22410 ft 387 kts 180°
2026-04-14 15:50 10.33186 100.60823 21931 ft 386 kts 180°
2026-04-14 15:50 10.30512 100.60758 21445 ft 384 kts 180°
2026-04-14 15:50 10.27861 100.60693 21033 ft 381 kts 180°
2026-04-14 15:50 10.25220 100.60628 20657 ft 376 kts 181°
2026-04-14 15:51 10.22600 100.60563 20175 ft 375 kts 181°
2026-04-14 15:51 10.20012 100.60500 19826 ft 370 kts 180°
2026-04-14 15:51 10.17443 100.60438 19376 ft 369 kts 181°
2026-04-14 15:51 10.14882 100.60376 18956 ft 366 kts 181°
2026-04-14 15:52 10.12342 100.60315 18545 ft 364 kts 181°
2026-04-14 15:52 10.09815 100.60256 18151 ft 362 kts 181°
2026-04-14 15:52 10.07305 100.60195 17693 ft 359 kts 181°
2026-04-14 15:52 10.04815 100.60133 17252 ft 357 kts 180°
2026-04-14 15:53 10.02344 100.60070 16817 ft 354 kts 180°
2026-04-14 15:53 9.99888 100.60009 16387 ft 352 kts 180°
2026-04-14 15:53 9.97462 100.59949 15820 ft 346 kts 180°
2026-04-14 15:53 9.95086 100.59893 15339 ft 335 kts 180°
2026-04-14 15:54 9.90608 100.59787 14580 ft 311 kts 180°
2026-04-14 15:54 9.88483 100.59733 14218 ft 300 kts 180°
2026-04-14 15:54 9.86426 100.59680 13869 ft 291 kts 180°
2026-04-14 15:55 9.84418 100.59629 13506 ft 289 kts 180°
2026-04-14 15:55 9.82406 100.59511 13143 ft 289 kts 188°
2026-04-14 15:55 9.80477 100.58945 12793 ft 290 kts 203°
2026-04-14 15:55 9.78748 100.57898 12432 ft 290 kts 218°
2026-04-14 15:56 9.77293 100.56486 12079 ft 290 kts 225°
2026-04-14 15:56 9.75882 100.55022 11713 ft 289 kts 225°
2026-04-14 15:56 9.74495 100.53587 11362 ft 287 kts 224°
2026-04-14 15:56 9.73098 100.52148 11007 ft 286 kts 225°
2026-04-14 15:57 9.71861 100.50581 10660 ft 286 kts 239°
2026-04-14 15:57 9.71088 100.48721 10294 ft 288 kts 256°
2026-04-14 15:57 9.70856 100.46709 9949 ft 288 kts 273°
2026-04-14 15:57 9.71118 100.44714 9663 ft 286 kts 281°
2026-04-14 15:58 9.71447 100.42715 9283 ft 287 kts 280°
2026-04-14 15:58 9.71771 100.40717 8916 ft 288 kts 280°
2026-04-14 15:58 9.72094 100.38708 8555 ft 289 kts 280°
2026-04-14 15:58 9.72419 100.36696 8191 ft 290 kts 280°
2026-04-14 15:59 9.72743 100.34678 7833 ft 291 kts 279°
2026-04-14 15:59 9.73065 100.32654 7478 ft 291 kts 279°
2026-04-14 15:59 9.73390 100.30626 7111 ft 292 kts 279°
2026-04-14 15:59 9.73514 100.28564 6670 ft 296 kts 270°
2026-04-14 16:00 9.73517 100.26482 6400 ft 293 kts 270°
2026-04-14 16:00 9.73513 100.24427 6070 ft 291 kts 270°
2026-04-14 16:00 9.73508 100.22373 5751 ft 289 kts 270°
2026-04-14 16:00 9.73503 100.20344 5440 ft 287 kts 270°
2026-04-14 16:01 9.73501 100.18352 5135 ft 285 kts 270°
2026-04-14 16:01 9.73499 100.16318 4431 ft 297 kts 270°
2026-04-14 16:01 9.73496 100.14220 3866 ft 291 kts 270°
2026-04-14 16:01 9.73379 100.12252 3674 ft 269 kts 256°
2026-04-14 16:02 9.72587 100.10627 3538 ft 249 kts 230°
2026-04-14 16:02 9.71257 100.09575 3197 ft 240 kts 206°
2026-04-14 16:02 9.70096 100.09044 2953 ft 232 kts 204°
2026-04-14 16:02 9.68660 100.08390 2653 ft 222 kts 204°
2026-04-14 16:03 9.67281 100.07761 2365 ft 212 kts 204°
2026-04-14 16:03 9.65950 100.07151 2100 ft 207 kts 204°
2026-04-14 16:03 9.64672 100.06563 1861 ft 198 kts 203°
2026-04-14 16:03 9.63447 100.06000 1613 ft 187 kts 203°
2026-04-14 16:04 9.62246 100.05604 1487 ft 179 kts 186°
2026-04-14 16:04 9.60994 100.05630 1269 ft 180 kts 175°
2026-04-14 16:04 9.59761 100.05748 946 ft 173 kts 175°
2026-04-14 16:04 9.58628 100.05866 773 ft 153 kts 174°
2026-04-14 16:05 9.57606 100.05975 475 ft 144 kts 175°
2026-04-14 16:05 9.56639 100.06062 244 ft 137 kts 174°
2026-04-14 16:05 9.55693 100.06154 117 ft 136 kts 172°
2026-04-14 16:05 9.54765 100.06243 63 ft 127 kts 173°
2026-04-14 16:06 9.53844 100.06324 642 ft 138 kts 174°
2026-04-14 16:06 9.52917 100.06406 1542 ft 138 kts 175°
2026-04-14 16:06 9.51871 100.06511 1929 ft 160 kts 175°
2026-04-14 16:06 9.50696 100.06625 2065 ft 180 kts 175°
2026-04-14 16:07 9.49380 100.06757 2195 ft 200 kts 170°
2026-04-14 16:07 9.48162 100.07469 2473 ft 212 kts 127°
2026-04-14 16:07 9.47698 100.08928 2702 ft 231 kts 90°
2026-04-14 16:07 9.47958 100.10565 3175 ft 241 kts 64°
2026-04-14 16:08 9.49057 100.11795 3280 ft 238 kts 26°
2026-04-14 16:08 9.50634 100.12093 3302 ft 237 kts 357°
2026-04-14 16:08 9.52305 100.12006 3305 ft 237 kts 356°
2026-04-14 16:08 9.53958 100.11916 3310 ft 238 kts 356°
2026-04-14 16:09 9.55608 100.11822 3310 ft 238 kts 356°
2026-04-14 16:09 9.57237 100.11718 3309 ft 238 kts 355°
2026-04-14 16:09 9.58911 100.11606 3309 ft 237 kts 355°
2026-04-14 16:09 9.60513 100.11497 3304 ft 223 kts 355°
2026-04-14 16:10 9.62035 100.11393 3305 ft 217 kts 355°
2026-04-14 16:10 9.63517 100.11290 3306 ft 213 kts 355°
2026-04-14 16:10 9.64945 100.11192 3300 ft 199 kts 355°
2026-04-14 16:10 9.66313 100.11098 3301 ft 196 kts 355°
2026-04-14 16:11 9.67671 100.11004 3300 ft 195 kts 355°
2026-04-14 16:11 9.69027 100.10912 3300 ft 195 kts 355°
2026-04-14 16:11 9.70382 100.10820 3303 ft 195 kts 355°
2026-04-14 16:11 9.71745 100.10727 3331 ft 195 kts 355°
2026-04-14 16:12 9.73097 100.10644 3295 ft 195 kts 359°
2026-04-14 16:12 9.74367 100.11049 3287 ft 196 kts 37°
2026-04-14 16:12 9.75173 100.12157 3290 ft 198 kts 72°
2026-04-14 16:12 9.75154 100.13526 3293 ft 198 kts 111°
2026-04-14 16:13 9.74334 100.14602 3299 ft 197 kts 145°
2026-04-14 16:13 9.73061 100.15093 3261 ft 193 kts 176°
2026-04-14 16:13 9.71784 100.14858 2971 ft 190 kts 208°
2026-04-14 16:13 9.70807 100.13989 2690 ft 188 kts 235°
2026-04-14 16:14 9.70095 100.12900 2506 ft 181 kts 236°
2026-04-14 16:14 9.69409 100.11852 2325 ft 175 kts 236°
2026-04-14 16:14 9.68747 100.10845 2150 ft 168 kts 235°
2026-04-14 16:14 9.68105 100.09867 1926 ft 165 kts 235°
2026-04-14 16:15 9.67472 100.08906 1615 ft 162 kts 234°
2026-04-14 16:15 9.66843 100.07991 1405 ft 153 kts 228°
2026-04-14 16:15 9.66055 100.07266 1412 ft 153 kts 212°
2026-04-14 16:15 9.65126 100.06775 1409 ft 150 kts 202°
2026-04-14 16:16 9.64190 100.06347 1412 ft 144 kts 203°
2026-04-14 16:16 9.63285 100.05931 1406 ft 142 kts 203°
2026-04-14 16:16 9.62353 100.05627 1404 ft 140 kts 188°
2026-04-14 16:16 9.61380 100.05597 1274 ft 139 kts 173°
2026-04-14 16:17 9.60428 100.05697 1072 ft 136 kts 174°
2026-04-14 16:17 9.59488 100.05790 880 ft 135 kts 174°
2026-04-14 16:17 9.58546 100.05880 694 ft 136 kts 175°
2026-04-14 16:17 9.57612 100.05970 436 ft 135 kts 175°
2026-04-14 16:18 9.56683 100.06056 255 ft 133 kts 174°
2026-04-14 16:18 9.55760 100.06144 103 ft 133 kts 173°
2026-04-14 16:18 9.54865 100.06239 53 ft 112 kts 174°
2026-04-14 16:18 9.54393 100.06284 50 ft 25 kts 174°
2026-04-14 16:19 9.54342 100.06290 53 ft 11 kts 174°
2026-04-14 16:19 9.54251 100.06299 50 ft 15 kts 174°
2026-04-14 16:19 9.54139 100.06311 53 ft 18 kts 175°
2026-04-14 16:19 9.54007 100.06322 53 ft 20 kts 176°
2026-04-14 16:20 9.53885 100.06310 53 ft 16 kts 182°
2026-04-14 16:20 9.53862 100.06341 53 ft 3 kts 354°
2026-04-14 16:20 9.53922 100.06330 51 ft 15 kts 354°
2026-04-14 16:20 9.54039 100.06320 53 ft 18 kts 355°
2026-04-14 16:21 9.54174 100.06308 51 ft 21 kts 355°
2026-04-14 16:21 9.54360 100.06291 53 ft 32 kts 355°
2026-04-14 16:21 9.54591 100.06264 53 ft 34 kts 350°
2026-04-14 16:21 9.54835 100.06245 52 ft 36 kts 353°
2026-04-14 16:22 9.55046 100.06221 53 ft 23 kts 354°
2026-04-14 16:22 9.55120 100.06266 53 ft 5 kts 88°
2026-04-14 16:22 9.55107 100.06294 53 ft 0 kts 138°
2026-04-14 16:23 9.55094 100.06299 51 ft 3 kts 165°
2026-04-14 16:23 9.55078 100.06316 53 ft 4 kts 94°
2026-04-14 16:23 9.55082 100.06342 53 ft 0 kts 82°
2026-04-14 16:23 9.55082 100.06343 53 ft 0 kts 82°
2026-04-14 16:24 9.55082 100.06342 53 ft 0 kts 84°